千帆星座-145(QIANFAN-145)

导读

QIANFAN-145(NORAD编号69104)是中国千帆星座(QIANFAN,原G60星座)中的一颗低轨宽带通信卫星,由上海优势资本(SpaceSail)主导布局,中科院上海微卫星研究所参与研制。千帆星座计划在2030年前完成约10000颗低轨卫星组网,旨在为全球用户提供高速安全可靠的宽带互联网服务,QIANFAN-145是该星座组网进程中的组成卫星,承载全球宽带互联服务的部署任务,运行于近地轨道,为后续大规模低轨互联星座组网积累技术与运营经验。

Basic Information
目录编号:
69104
目录名称:
QIANFAN-145
国际标识:
2026-108A
轨道中心:
EARTH
卫星名称:
千帆星座-145
卫星全名:
千帆星座-145(QIANFAN-145)
卫星状态:
在轨 (已飞行117 天)
发射日期:
2026-05-17 UTC
国别 :
中国 (CN)
星等 :
--
This satellite is enrolled in the Space Conjunction Data Service (SCDS) and the current flight risk assessment level is: No High Risk
Orbit Information
数据来源 国际轨道数据 AOE轨道数据
星历时间 2026-09-11T14:29:34+0800
8小时前
查看轨道信息
2026-09-10T13:00:00+0800
1天前
查看轨道信息
半长轴 7446.599km 7446.6km
偏心率 0.0001649 0.0001779
轨道倾角 89.018° 89.019°
近地点辐角 96.992° 93.783°
升交点赤经 13.449° 13.555°
平近点角 263.142° 143.171°
近地点 1067.234km 1067.138km
远地点 1069.69km 1069.788km
周期 106.585分钟 106.585分钟
每日圈数 13.510328 13.510325
Detailed Information
卫星平台:
145
覆盖范围:
全球
运营商:
上海垣信卫星科技有限公司
运营商所在国:
中国
使用方式:
暂无
Satellite Introduction
千帆星座,也被称为“G60星链”计划,是中国版“星链”的重要组成部分,旨在打造一个由1.4万多颗低轨宽频多媒体卫星构成的庞大星座。千帆星座计划由上海垣信卫星科技有限公司负责实施,于2023年启动建设。该项目是我国第二个低轨卫星大星座,旨在通过构建庞大的卫星网络,为全球用户提供高质量的通信和宽带互联网服务。
2D Orbit Map
3D Orbit Map
Orbit Altitude Analysis Chart
Orbit Inclination Analysis Chart
Orbit Comprehensive Analysis Chart
View Comprehensive Chart
Conjunction Data List
Event ID Objects TCA Miss Dist (km) Collision Risk Probability Collision Risk Index (CRI) Action
CDM_260910-044802-682606-910428
2026-09-10T
04:48:46+0000
1.014 km
极远距离
2.578447E-5 中风险 0.63
Miss Distance Evolution Trend with All Objects
Collision Probability Evolution Trend with All Objects